sat.trackr.live / text

‹ back to catalog

EMISAR

NORAD 68427 · 2026-067M

PAYLOAD ACTIVE UNKNOWN

§ Identity

Operator
Country
ROM
Launch date
2026-03-30
Launch site
AFWTR
Launch vehicle
Mass (kg)
RCS (m²)

External: N2YO · Heavens-Above · Gunter

§ Orbital elements

Epoch: 2026-05-24T20:30:36.157824Z

Period
94.81 min
Inclination
97.4528°
Eccentricity
0.0003777
Mean motion
15.18904593 rev/d
Perigee alt
506.5 km
Apogee alt
511.8 km
Semi-major
6,887.3 km
B*
3.7673e-4
RAAN
103.7084°
Arg perigee
79.4218°
Mean anomaly
280.7442°
Rev number
840

§ Raw data

EMISAR1 68427U 26067M   26144.85458516  .00007797  00000+0  37673-3 0  99952 68427  97.4528 103.7084 0003777  79.4218 280.7442 15.18904593  8406

JSON: /api/v1/satellites/68427 · /tle

For live sub-satellite position, see the globe view (requires WebGL).

§ Visibility from observer

Set your observer location to see the next 7 days of passes ≥ 10°. The values pass through the URL so the page stays shareable.

No JS? Fill the form by hand. The geolocation button needs JavaScript.